Date,TemperatureHighF,TemperatureAvgF,TemperatureLowF,DewpointHighF,DewpointAvgF,DewpointLowF,HumidityHigh,HumidityAvg,HumidityLow,PressureMaxIn,PressureMinIn,WindSpeedMaxMPH,WindSpeedAvgMPH,GustSpeedMaxMPH,PrecipitationSumIn
2013-1-2,22.2,18.9,16.4,16.7,14.8,12.8,90,84,71,30.33,30.17,9,5,19,0.00
2013-1-3,27.9,21.6,16.6,19.3,16.0,11.0,87,79,66,30.36,30.28,10,6,26,0.00
2013-1-4,23.2,21.6,20.0,19.9,18.3,16.8,90,87,82,30.34,30.25,18,10,33,0.00
2013-1-5,37.9,27.8,20.1,22.5,19.0,17.1,90,71,44,30.50,30.27,14,5,23,0.03
2013-1-6,32.0,30.1,27.7,28.4,25.2,21.9,96,82,70,30.27,30.12,10,5,20,0.00
2013-1-7,33.1,26.2,22.5,26.4,23.2,16.7,97,89,57,30.55,30.27,8,4,19,0.01
2013-1-8,42.9,35.3,29.2,28.3,22.6,12.6,88,61,40,30.51,30.42,11,4,21,0.00
2013-1-9,46.7,40.4,29.8,41.9,35.5,24.3,97,83,64,30.50,30.33,14,8,26,0.01
2013-1-10,49.2,38.9,31.6,33.1,29.0,24.4,90,69,39,30.67,30.48,9,3,19,0.00
2013-1-11,52.5,44.1,37.8,50.5,39.9,28.9,98,85,65,30.48,30.14,9,4,19,0.10
2013-1-12,59.5,54.0,50.0,52.9,50.6,47.6,95,88,76,30.20,30.10,8,4,19,0.00
2013-1-13,61.5,57.4,50.5,53.4,50.4,45.2,93,78,63,30.10,29.95,9,3,19,0.00
2013-1-14,58.6,46.6,37.5,53.1,45.0,37.0,98,94,82,30.22,29.97,9,4,19,0.08
2013-1-15,31.7,29.6,28.3,31.2,29.3,28.1,99,99,98,30.41,30.19,3,0,5,0.01
2013-1-17,29.3,27.7,25.3,27.3,25.6,22.8,96,92,83,30.24,30.14,7,2,14,0.00
2013-1-18,25.2,21.1,15.6,22.7,17.4,11.5,90,85,80,30.51,30.23,11,6,21,0.00
2013-1-21,30.3,21.3,8.5,16.5,10.7,3.3,89,67,34,30.10,29.95,12,7,19,0.00
2013-1-22,8.4,3.7,-0.7,4.9,-3.3,-5.4,86,73,56,30.41,30.05,10,6,25,0.00
2013-1-23,12.2,6.4,1.0,9.3,0.1,-3.9,88,75,57,30.46,30.24,9,4,20,0.00
2013-1-24,13.7,9.4,4.0,9.4,4.2,-1.6,89,80,61,30.67,30.20,5,2,19,0.00
2013-1-25,11.0,7.4,2.9,4.1,1.7,-1.5,85,77,71,30.66,30.39,7,3,19,0.00
2013-1-28,47.7,46.0,42.2,47.0,44.6,41.1,98,95,88,30.36,30.14,12,8,22,0.33
2013-1-29,62.9,52.1,47.4,53.0,48.8,44.0,99,89,69,30.18,29.96,12,4,19,0.06
2013-1-30,63.9,53.9,45.6,55.5,49.7,43.5,97,86,70,29.96,29.28,12,5,20,0.72
2013-1-31,45.4,22.8,16.4,43.7,20.7,12.2,97,91,83,29.93,29.23,14,9,33,0.09
2013-2-1,18.5,8.7,3.0,16.8,5.8,0.0,94,88,81,30.47,29.90,14,7,27,0.00
2013-2-2,24.2,14.4,3.0,20.9,10.2,-0.1,91,84,61,30.47,30.13,8,4,19,0.00
2013-2-3,23.8,19.1,12.4,20.4,16.7,10.3,93,90,81,30.13,29.91,12,5,25,0.00
2013-2-4,18.4,13.2,12.0,11.2,10.1,9.2,91,88,72,30.16,30.06,16,11,24,0.00
2013-2-5,31.8,29.4,28.0,30.0,28.3,27.0,97,96,92,30.01,29.93,10,6,25,0.00
2013-2-6,29.8,24.8,18.5,29.3,23.7,16.9,98,96,92,30.43,30.00,10,4,25,0.00
2013-2-7,33.2,28.0,22.1,29.9,25.9,20.8,96,92,87,30.46,30.20,8,4,25,0.00
2013-2-8,36.8,28.3,19.0,35.8,27.4,17.6,99,96,93,30.20,29.91,15,6,25,0.01
2013-2-9,27.1,20.1,16.6,17.9,15.7,10.8,95,84,58,30.53,30.12,12,6,25,0.00
2013-2-10,42.7,31.2,19.5,28.7,18.7,9.7,90,61,39,30.52,30.19,8,4,25,0.01
2013-2-11,53.0,44.2,32.0,44.6,34.3,22.5,95,71,34,30.19,29.83,12,7,25,0.05
2013-2-12,42.7,34.5,28.9,27.6,23.2,20.3,79,64,43,30.07,29.92,17,9,39,0.00
2013-2-13,37.2,31.4,27.1,29.0,25.5,18.5,97,81,50,29.90,29.71,6,2,29,0.00
2013-2-14,37.3,30.1,22.5,28.9,24.7,19.7,96,81,61,30.11,29.88,11,5,29,0.02
2013-2-15,37.5,32.2,26.5,31.0,28.3,23.9,92,86,74,30.11,30.04,8,4,29,0.01
2013-2-16,26.5,20.4,13.2,24.2,16.9,9.8,92,86,74,30.07,29.98,5,2,29,0.00
2013-2-17,14.8,10.9,7.5,12.1,8.1,4.8,91,88,83,30.36,29.99,10,5,29,0.00
2013-2-18,43.2,25.7,8.0,29.6,14.7,3.6,84,65,40,30.51,30.19,9,4,29,0.06
2013-2-19,40.5,33.4,20.6,34.7,27.4,18.2,93,79,52,30.18,29.76,12,6,20,0.09
2013-2-20,19.8,15.5,10.7,17.9,12.1,6.9,93,86,75,30.29,29.90,15,10,29,0.00
2013-2-21,22.0,15.7,10.4,15.6,11.2,7.1,89,82,70,30.49,30.26,9,5,19,0.00
2013-2-22,29.0,24.6,20.6,28.4,21.9,13.8,98,90,70,30.47,30.20,8,5,15,0.00
2013-2-23,49.1,38.0,28.8,40.9,34.7,28.3,99,89,62,30.21,29.89,4,1,14,0.02
2013-2-24,34.3,27.3,19.4,33.0,23.2,14.6,95,84,66,30.22,29.89,11,4,23,0.00
2013-2-25,35.8,26.9,19.9,22.7,18.8,15.7,89,72,53,30.33,30.21,7,2,14,0.00
2013-2-26,30.8,27.9,25.4,30.3,23.7,18.0,98,85,69,30.26,29.76,8,5,17,0.00
2013-2-27,30.5,30.4,30.3,30.0,29.9,29.8,98,98,98,29.76,29.72,1,0,14,0.00
2013-2-28,28.2,26.3,24.9,26.0,24.4,22.6,95,92,88,29.88,29.73,9,6,19,0.00
2013-3-1,25.8,23.6,20.4,24.7,22.0,18.9,97,94,89,30.04,29.88,5,2,15,0.00
2013-3-2,22.1,19.6,17.2,18.9,17.1,15.1,95,90,82,30.03,29.97,6,3,15,0.00
2013-3-3,22.3,18.1,15.2,17.0,15.2,12.5,93,88,76,30.09,30.00,12,6,18,0.00
2013-3-4,28.3,19.9,12.8,17.7,13.4,9.1,90,76,61,30.22,30.08,9,6,20,0.00
2013-3-5,42.1,31.9,22.3,27.7,19.0,13.1,96,61,37,30.22,29.77,7,3,15,0.06
2013-3-6,30.2,27.0,24.0,28.7,25.8,23.0,97,95,91,30.21,29.75,7,3,15,0.01
2013-3-7,28.2,27.2,26.4,26.4,25.9,24.7,96,95,91,30.29,30.19,6,3,15,0.00
2013-3-8,27.7,25.0,22.4,24.6,22.6,20.3,94,91,88,30.53,30.39,8,4,11,0.00
2013-3-9,46.7,33.8,18.3,30.4,22.5,16.1,97,68,31,30.54,30.39,5,2,11,0.32
2013-3-10,54.4,44.8,36.2,32.4,28.3,23.1,74,53,38,30.39,30.18,8,4,15,0.00
2013-3-11,47.9,45.4,44.3,44.7,35.5,29.0,94,69,52,30.18,29.88,8,6,18,0.00
2013-3-12,47.8,35.3,28.7,45.8,33.2,24.5,98,92,83,30.07,29.82,11,5,18,0.09
2013-3-13,29.7,25.6,19.3,26.6,21.5,15.5,95,85,62,30.18,30.01,11,5,22,0.01
2013-3-14,30.1,23.8,16.1,18.9,15.9,12.6,92,72,59,30.29,30.18,11,7,27,0.01
2013-3-15,42.7,33.3,23.9,32.9,24.2,14.9,76,69,62,30.26,29.94,12,7,20,0.00
2013-3-16,52.4,42.5,36.2,46.7,40.1,32.6,98,91,76,29.94,29.71,9,5,18,0.15
2013-3-17,36.0,29.6,25.7,35.2,28.6,24.5,98,96,90,30.29,29.93,6,2,18,0.00
2013-3-18,32.2,26.6,23.7,32.0,25.9,22.7,99,97,94,30.29,29.96,9,5,18,0.00
2013-3-19,41.9,34.8,26.9,41.9,23.9,7.9,100,69,30,30.03,29.85,16,9,26,0.15
2013-3-20,35.3,27.3,21.2,24.6,15.0,10.3,93,61,41,30.05,29.89,12,6,27,0.00
2013-3-21,21.1,16.0,12.8,18.9,11.4,8.2,91,82,66,30.06,29.87,9,4,19,0.00
2013-3-22,32.6,22.7,15.8,18.4,14.3,10.2,87,71,53,30.16,30.02,10,5,19,0.00
2013-3-23,39.7,30.0,21.9,21.4,18.0,15.2,79,62,41,30.15,30.08,6,3,18,0.00
2013-3-24,30.1,25.8,23.9,24.4,21.1,18.1,96,83,69,30.09,29.66,7,3,18,0.00
2013-3-25,29.8,26.3,23.8,26.8,24.3,22.8,97,92,82,29.83,29.60,10,4,18,0.04
2013-3-26,26.4,26.1,25.8,24.9,24.5,24.1,94,94,93,29.86,29.83,8,6,13,0.00
2013-3-28,32.0,30.9,29.9,26.6,25.9,25.3,84,82,80,30.39,30.31,6,4,12,0.00
2013-3-29,40.9,34.6,30.3,27.9,25.3,21.8,85,69,52,30.39,30.29,6,4,14,0.03
2013-3-30,45.8,37.1,26.9,30.6,24.1,20.1,79,61,39,30.34,30.18,5,1,8,0.00
2013-3-31,45.0,40.2,36.6,43.4,34.8,24.0,97,82,55,30.18,29.82,9,4,17,0.24
2013-4-1,41.5,35.3,26.7,38.4,30.6,15.9,96,84,59,30.05,29.82,11,5,23,0.10
2013-4-2,32.8,26.7,21.6,16.7,13.4,8.6,71,58,40,30.30,30.05,9,5,17,0.01
2013-4-3,36.5,27.7,20.9,16.5,13.8,10.6,72,57,37,30.50,30.29,9,4,14,0.00
2013-4-4,40.9,30.6,17.9,27.8,17.0,9.2,91,59,39,30.48,30.15,7,2,11,0.00
2013-4-5,50.6,40.7,32.3,34.3,28.3,22.5,88,63,38,30.17,30.00,7,4,13,0.00
2013-4-6,52.1,37.8,25.4,22.5,14.7,5.0,72,41,22,30.36,30.17,6,3,10,0.00
2013-4-7,64.5,52.9,42.6,41.9,34.9,22.3,67,51,41,30.26,30.03,10,4,17,0.00
2013-4-8,63.3,53.7,48.4,44.5,42.2,39.2,76,66,51,30.13,30.07,5,2,8,0.00
2013-4-9,75.0,67.8,63.6,50.9,49.3,47.4,62,52,41,30.03,29.99,6,3,15,0.00
2013-4-10,78.3,68.2,57.8,56.3,51.5,47.0,79,56,38,30.01,29.87,12,6,24,0.00
2013-4-11,75.0,66.4,51.1,54.3,51.8,48.6,91,61,43,29.92,29.68,8,3,15,0.00
2013-4-12,63.0,56.1,40.4,56.2,47.8,32.3,97,75,46,29.81,29.57,12,5,23,0.95
2013-4-13,55.1,44.1,34.8,34.6,30.2,21.1,85,60,29,30.07,29.81,11,6,22,0.00
2013-4-14,63.3,48.1,32.1,37.9,33.1,29.2,91,59,36,30.23,30.07,7,3,12,0.00
2013-4-15,54.3,49.4,46.1,48.1,44.4,37.6,96,84,60,30.27,30.16,9,5,16,0.03
2013-4-16,74.2,60.7,49.1,55.0,51.3,48.0,97,74,44,30.29,30.14,8,4,16,0.32
2013-4-17,67.9,60.1,54.9,58.2,54.8,51.6,96,83,64,30.23,30.15,8,2,10,0.01
2013-4-18,71.0,61.0,53.9,60.6,55.6,52.6,99,84,63,30.20,29.94,9,5,16,0.00
2013-4-19,67.0,54.4,37.2,58.2,49.5,31.3,96,84,66,29.93,29.59,11,7,24,0.75
2013-4-20,44.4,35.9,29.4,31.2,25.3,20.3,83,66,42,30.47,29.83,11,6,28,0.00
2013-4-21,45.4,35.0,24.6,25.7,22.6,20.1,86,62,37,30.66,30.47,4,1,9,0.00
2013-4-22,38.8,33.7,31.5,26.7,23.6,22.4,72,66,59,30.62,30.57,5,2,9,0.00
2013-4-24,71.5,65.6,56.8,54.5,49.7,45.6,82,57,41,30.03,29.82,11,6,22,0.02
2013-4-25,53.0,45.9,37.4,32.5,26.8,17.8,74,49,27,30.44,30.30,7,4,19,0.00
2013-4-26,59.5,45.4,33.2,35.5,28.4,20.5,92,56,23,30.54,30.43,4,1,19,0.00
2013-4-27,63.7,50.7,36.7,40.3,36.1,31.6,94,61,30,30.49,30.29,5,3,19,0.00
2013-4-28,51.6,47.4,44.7,46.6,43.9,39.8,99,88,65,30.30,30.10,9,5,19,0.15
2013-4-29,53.6,48.9,44.5,52.2,48.1,43.7,99,97,92,30.14,30.08,7,2,19,0.11
2013-4-30,54.5,47.8,45.7,51.0,47.5,45.4,100,99,87,30.25,30.13,3,1,8,0.02
2013-5-2,64.4,55.6,43.6,43.4,38.1,30.2,81,53,34,30.44,30.34,6,3,14,0.00
2013-5-3,61.2,51.5,44.2,43.9,41.1,36.7,85,68,51,30.37,30.28,9,4,15,0.00
2013-5-4,59.1,47.0,35.7,44.3,37.4,28.8,94,70,51,30.33,30.21,7,3,14,0.00
2013-5-5,59.8,48.7,40.4,40.2,34.9,28.9,81,61,32,30.26,30.15,7,3,11,0.00
2013-5-6,49.9,44.9,40.3,49.9,43.4,38.1,100,95,78,30.19,30.11,4,2,11,0.07
2013-5-7,52.4,50.5,47.7,52.4,50.5,47.7,100,100,99,30.11,29.99,6,2,10,2.01
2013-5-8,56.7,50.2,46.0,51.8,48.0,46.0,100,93,73,30.07,29.97,4,1,10,0.48
2013-5-9,66.0,55.4,47.8,53.8,50.1,46.8,97,84,54,30.12,29.99,8,4,15,0.06
2013-5-10,73.4,60.5,54.6,56.5,52.8,49.4,94,77,50,30.11,29.89,10,3,21,0.37
2013-5-11,61.0,55.6,47.7,56.5,52.5,45.2,96,89,77,29.89,29.82,9,5,15,0.25
2013-5-12,47.6,42.1,37.1,45.1,32.4,24.1,96,70,49,30.12,29.84,9,5,21,0.06
2013-5-13,43.1,36.6,32.0,33.6,28.2,22.5,87,72,50,30.29,30.11,9,4,18,0.01
2013-5-14,55.9,41.6,29.2,40.5,31.6,24.6,86,69,38,30.32,30.10,5,2,18,0.01
2013-5-15,79.7,68.6,49.9,56.8,51.4,38.8,81,56,37,30.10,29.83,11,7,21,0.00
2013-5-16,68.6,61.4,55.1,59.2,53.8,48.1,95,78,48,30.03,29.81,11,6,21,0.23
2013-5-17,64.1,55.9,54.0,55.8,53.6,52.4,96,92,73,30.17,30.03,7,4,19,0.00
2013-5-20,74.8,67.9,61.3,66.4,62.8,59.9,95,84,67,30.14,30.02,4,2,6,0.07
2013-5-21,79.2,69.0,60.0,65.4,60.7,57.2,97,77,49,30.04,29.89,6,3,10,0.01
2013-5-22,78.8,67.1,59.2,62.2,57.5,53.3,97,72,45,29.95,29.87,8,3,14,0.10
2013-5-23,73.6,62.7,55.8,59.6,55.9,52.6,92,80,49,29.90,29.81,10,4,17,0.01
2013-5-24,55.7,41.3,33.1,53.1,38.1,27.8,98,89,68,30.31,29.82,7,4,17,0.08
2013-5-25,52.8,40.6,29.7,38.0,32.4,27.3,91,74,53,30.40,30.31,8,4,19,0.00
2013-5-26,60.0,48.0,36.2,36.2,30.5,22.0,78,54,29,30.37,30.30,7,3,14,0.00
2013-5-27,60.9,50.8,39.3,48.3,41.4,34.2,96,71,48,30.37,30.26,4,2,8,0.03
2013-5-28,74.6,65.4,55.0,59.8,55.3,47.9,87,71,48,30.26,30.10,9,4,19,0.00
2013-5-29,77.7,68.4,59.0,61.0,57.2,53.8,89,68,50,30.19,30.11,10,4,19,0.00
2013-5-30,79.6,69.0,57.7,66.3,59.4,55.7,94,73,47,30.26,30.16,5,1,19,0.01
2013-5-31,81.1,74.7,65.3,64.3,59.0,53.0,87,59,43,30.18,30.04,6,2,11,0.00
2013-6-1,81.3,71.8,64.5,66.9,60.9,58.0,88,70,48,30.06,29.92,6,3,11,0.00
2013-6-2,69.0,65.0,59.9,61.8,59.6,57.3,94,83,74,29.92,29.84,9,4,20,0.01
2013-6-3,67.3,59.9,51.6,61.1,56.2,48.8,97,88,73,30.07,29.90,3,1,11,0.00
2013-6-4,68.9,56.4,44.8,48.5,43.6,35.1,97,66,30,30.22,30.06,5,1,11,0.01
2013-6-5,71.4,60.5,50.1,58.6,53.1,44.9,89,77,62,30.21,30.05,6,3,11,0.00
2013-6-6,61.1,58.1,56.3,58.5,56.7,55.2,99,95,88,30.05,29.89,6,4,11,0.26
2013-6-7,62.7,59.7,54.7,62.1,59.3,54.1,99,98,96,29.89,29.74,4,1,9,0.17
2013-6-8,69.7,59.3,52.6,58.8,54.6,51.5,98,85,61,30.19,29.86,6,2,14,0.00
2013-6-9,70.2,63.6,56.1,64.3,60.1,54.7,97,89,68,30.23,30.12,4,2,8,0.00
2013-6-10,70.3,63.2,59.2,66.6,61.2,57.0,99,93,76,30.12,29.84,8,3,11,0.23
2013-6-11,66.0,63.9,62.2,61.3,60.4,59.7,92,88,84,29.97,29.91,8,5,16,0.01
2013-6-12,75.3,68.2,61.7,66.6,63.9,59.5,93,87,70,29.97,29.83,5,2,17,0.00
2013-6-13,70.4,61.3,53.8,66.9,59.6,52.7,98,94,88,29.87,29.57,9,4,17,1.69
2013-6-14,65.3,57.3,49.9,57.1,52.6,48.8,97,85,68,30.12,29.76,4,2,17,0.01
2013-6-15,55.3,53.1,50.8,53.2,51.3,49.8,98,94,87,30.16,30.10,4,2,17,0.00
2013-6-17,75.4,69.4,62.1,64.7,62.4,60.7,95,79,63,30.03,29.97,4,3,10,0.00
2013-6-18,69.2,64.0,57.0,64.4,60.4,55.7,96,88,68,29.97,29.86,2,0,10,0.18
2013-6-19,63.2,59.8,57.3,59.9,58.4,56.7,98,95,88,30.08,29.96,2,0,5,0.00
2013-6-24,78.7,74.4,67.1,67.3,64.4,61.3,88,72,57,30.19,30.09,4,2,9,0.00
2013-6-25,80.3,74.3,65.6,66.9,65.1,62.4,93,74,55,30.10,30.01,6,4,14,0.00
2013-6-26,72.9,69.0,64.4,67.4,64.9,62.3,94,87,77,29.94,29.88,6,2,11,0.06
2013-6-27,67.9,65.0,63.4,66.1,63.2,61.3,98,94,86,29.88,29.70,6,2,19,0.28
2013-6-28,72.2,64.3,58.8,66.6,62.1,56.5,98,93,76,29.71,29.58,6,3,21,0.08
2013-6-29,74.0,64.5,57.3,61.2,58.1,55.5,96,81,58,29.77,29.60,5,2,21,0.02
2013-6-30,76.0,67.1,60.4,66.4,62.0,58.8,98,85,61,29.89,29.75,4,1,21,0.01
2013-7-1,74.5,66.6,61.1,68.1,63.5,59.1,98,90,77,29.99,29.85,5,2,11,0.01
2013-7-2,72.4,67.7,63.0,67.2,64.5,61.8,98,90,81,30.14,29.99,5,2,9,0.00
2013-7-3,77.3,69.4,62.7,69.0,64.8,61.5,97,86,72,30.24,30.13,5,2,10,0.00
2013-7-4,80.0,71.2,64.7,71.1,65.1,62.6,95,82,64,30.26,30.17,6,3,11,0.00
2013-7-5,80.5,71.2,65.6,70.8,65.4,61.9,95,82,63,30.23,30.14,5,2,8,0.00
2013-7-6,67.4,66.0,63.8,65.2,64.0,62.0,95,93,91,30.22,30.19,2,1,6,0.00
2013-7-8,73.6,68.5,61.1,65.6,62.4,57.1,95,81,70,30.19,30.13,5,2,15,0.07
2013-7-9,76.6,69.0,64.7,68.8,64.4,62.2,96,86,71,30.17,30.06,6,3,18,0.04
2013-7-10,79.6,70.7,63.3,68.6,64.6,60.0,96,82,64,30.09,29.89,5,3,18,0.12
2013-7-11,72.2,65.3,58.5,65.3,62.1,57.9,98,90,77,30.03,29.89,5,1,11,0.52
2013-7-12,65.9,59.3,56.2,61.4,58.6,55.6,99,98,84,30.17,30.00,1,0,11,0.47
2013-7-13,73.3,65.2,59.6,66.7,63.0,59.3,100,93,77,30.31,30.15,5,1,7,0.01
2013-7-14,78.5,70.1,63.5,67.9,65.3,63.2,99,86,64,30.37,30.29,5,3,11,0.04
2013-7-15,83.4,72.6,63.3,68.5,64.5,61.1,94,77,52,30.38,30.29,4,1,6,0.00
2013-7-16,83.8,73.0,66.5,73.1,68.1,63.2,96,85,65,30.34,30.25,3,1,8,0.13
2013-7-17,83.8,73.4,66.8,72.6,69.4,65.6,99,88,65,30.32,30.18,1,0,6,0.00
2013-7-18,84.7,75.1,67.9,73.4,69.3,65.8,95,83,60,30.22,30.08,4,0,9,0.00
2013-7-19,84.3,73.5,67.7,72.9,68.6,65.6,97,85,63,30.09,29.91,5,2,9,0.00
2013-7-20,79.5,71.8,65.0,68.7,65.8,60.3,95,82,65,29.96,29.86,6,3,12,0.00
2013-7-21,76.0,68.2,63.1,69.0,64.4,60.2,97,88,72,30.01,29.94,4,1,9,0.40
2013-7-22,76.0,68.1,62.5,70.5,65.8,61.8,99,93,78,30.00,29.81,5,1,9,0.17
2013-7-23,75.7,67.2,60.1,66.9,63.6,59.2,98,89,71,29.84,29.75,6,2,13,0.35
2013-7-24,68.5,61.8,51.6,62.8,58.4,50.3,99,89,75,30.02,29.76,5,1,11,0.02
2013-7-25,70.1,58.8,50.8,59.5,53.4,49.6,98,83,60,30.16,30.00,2,0,6,0.00
2013-7-26,72.8,62.1,52.1,61.4,56.2,50.8,99,82,63,30.17,30.09,2,0,6,0.00
2013-7-27,68.5,64.1,60.4,63.0,60.9,58.7,96,90,79,30.09,29.93,5,2,17,0.06
2013-7-28,70.6,63.8,56.1,60.7,57.6,52.3,97,81,63,30.07,29.91,5,2,12,0.14
2013-7-29,66.7,58.0,49.5,54.9,51.2,47.5,94,79,59,30.28,30.08,4,2,13,0.00
2013-7-30,69.4,58.6,53.4,58.3,54.2,51.1,93,86,66,30.31,30.23,3,1,13,0.00
2013-7-31,70.0,62.3,55.8,61.9,59.0,54.4,98,89,69,30.23,30.03,4,1,13,0.00
2013-8-1,72.3,64.1,61.0,64.6,61.3,59.3,98,91,73,30.03,29.91,5,2,13,0.03
2013-8-2,72.1,64.0,57.7,60.8,57.9,55.0,97,82,58,30.05,29.96,5,2,14,0.01
2013-8-3,68.4,62.5,57.3,63.1,59.4,56.5,98,90,79,30.04,29.99,5,2,10,0.20
2013-8-4,68.1,59.9,53.7,58.2,54.6,50.6,98,84,55,30.14,30.03,3,1,8,0.01
2013-8-5,68.7,58.7,48.5,56.8,51.8,47.5,98,79,53,30.19,30.09,2,0,6,0.00
2013-8-6,71.9,63.9,54.9,63.2,57.9,50.8,95,81,67,30.10,30.05,3,1,7,0.00
2013-8-7,76.7,67.7,63.1,69.5,65.1,61.6,98,92,77,30.07,29.99,5,2,9,0.47
2013-8-8,74.9,68.4,64.6,70.3,66.3,62.8,98,93,80,30.05,29.99,3,1,7,0.25
2013-8-9,70.4,67.4,65.7,67.7,66.2,65.0,98,96,88,30.04,29.95,7,2,14,0.57
2013-8-10,76.9,66.8,60.4,67.1,62.6,57.4,98,87,61,30.15,30.04,2,0,8,0.02
2013-8-11,79.0,68.1,60.8,67.4,62.8,58.2,94,84,62,30.15,30.06,2,0,7,0.00
2013-8-12,77.7,68.3,62.1,66.5,63.2,60.3,97,85,59,30.09,29.95,4,1,8,0.00
2013-8-13,73.4,63.9,56.6,65.7,61.5,54.9,98,92,71,29.95,29.83,6,2,13,0.77
2013-8-14,60.5,54.2,47.9,55.0,49.2,44.5,95,83,69,30.23,29.93,6,2,14,0.00
2013-8-15,65.8,55.3,44.4,52.7,48.9,43.6,99,81,59,30.28,30.19,3,0,14,0.01
2013-8-16,70.2,60.4,52.3,56.2,52.8,49.1,97,78,53,30.25,30.19,3,1,7,0.00
2013-8-17,65.4,59.1,51.5,57.2,54.2,50.3,97,84,69,30.32,30.24,4,1,7,0.00
2013-8-18,64.3,58.1,53.7,61.5,56.7,53.1,99,95,86,30.30,30.23,5,1,7,0.12
2013-8-19,71.7,64.0,60.2,65.9,61.5,58.7,98,92,76,30.24,30.13,3,1,8,0.06
2013-8-20,74.4,65.3,57.3,64.8,60.7,56.7,99,86,60,30.26,30.16,2,0,6,0.01
2013-8-21,75.7,65.7,59.7,68.7,63.4,58.3,98,93,77,30.25,30.14,4,1,6,0.39
2013-8-22,74.5,66.3,61.4,66.5,62.3,57.1,97,88,71,30.16,30.04,6,3,16,0.01
2013-8-23,65.5,61.2,55.4,63.9,59.3,53.7,99,94,74,30.21,30.03,4,0,14,0.55
2013-8-24,71.2,61.9,55.0,63.6,57.5,54.7,100,87,63,30.40,30.21,3,0,5,0.00
2013-8-25,71.1,63.1,55.5,61.2,56.7,53.4,95,80,64,30.45,30.32,3,1,6,0.00
2013-8-26,75.2,65.0,55.8,63.9,58.5,53.4,92,80,62,30.35,30.11,6,2,13,0.00
2013-8-27,70.8,67.3,64.4,67.1,64.9,60.8,97,92,86,30.11,30.00,7,4,18,0.05
2013-8-28,73.4,67.7,63.5,69.3,66.2,62.9,98,95,84,30.02,29.86,6,3,18,0.74
2013-8-29,76.5,68.8,63.1,68.3,65.1,62.2,100,89,67,30.08,30.01,2,0,13,0.01
2013-8-30,73.8,63.9,61.6,64.6,61.6,59.7,98,93,62,30.08,30.05,3,2,8,0.00
2013-9-4,73.1,69.3,62.7,57.1,53.5,45.8,77,58,38,30.18,30.14,1,1,10,0.00
2013-9-5,69.1,61.7,51.8,60.1,55.5,49.5,94,81,63,30.22,30.13,6,2,13,0.00
2013-9-6,66.6,55.2,44.5,53.8,48.3,42.5,93,79,58,30.31,30.22,2,0,13,0.00
2013-9-7,73.2,61.2,52.1,53.3,50.3,38.1,97,71,30,30.22,30.03,5,2,8,0.00
2013-9-8,76.4,65.9,59.4,66.0,59.7,52.5,97,81,66,30.09,29.98,6,2,13,0.00
2013-9-9,70.8,64.2,56.9,65.0,61.1,54.8,98,90,77,30.17,30.09,5,2,13,0.00
2013-9-10,81.6,72.0,65.1,71.3,66.8,62.6,94,84,66,30.23,30.15,5,2,14,0.00
2013-9-11,77.8,72.1,67.3,71.6,68.2,65.2,95,88,76,30.20,30.11,4,2,11,0.08
2013-9-12,76.1,67.4,60.3,68.1,63.9,58.8,97,89,72,30.02,29.82,7,3,15,0.00
2013-9-13,60.2,54.2,44.3,58.8,51.7,43.0,98,91,70,30.04,29.80,4,1,13,0.16
2013-9-14,57.5,47.3,41.7,48.2,43.2,40.6,97,86,65,30.28,30.04,3,0,9,0.00
2013-9-15,68.0,55.8,41.9,56.8,50.2,40.8,98,83,61,30.29,30.17,5,2,9,0.01
2013-9-16,59.1,54.6,49.9,55.7,52.2,48.1,99,92,77,30.33,30.11,3,1,10,0.08
2013-9-17,57.0,50.1,45.2,49.9,47.1,40.7,98,90,72,30.47,30.34,4,1,8,0.00
2013-9-18,62.3,52.8,44.8,53.9,48.7,41.8,96,86,71,30.39,30.24,5,2,8,0.00
2013-9-19,68.3,59.6,51.9,60.7,56.8,50.5,98,91,74,30.25,30.11,3,0,7,0.00
2013-9-20,70.7,63.5,55.7,64.4,60.9,55.1,99,92,78,30.13,29.94,3,1,7,0.02
2013-9-21,65.6,59.6,51.4,62.3,58.2,50.3,98,95,87,29.94,29.72,5,2,15,0.34
2013-9-22,58.4,51.0,43.1,51.3,48.1,41.8,98,90,69,30.06,29.82,3,0,9,0.01
2013-9-23,57.5,45.8,38.3,47.6,42.5,37.5,99,89,66,30.21,30.06,1,0,7,0.00
2013-9-24,67.1,52.3,38.2,55.6,48.0,37.4,98,87,63,30.20,30.06,1,0,8,0.01
2013-9-25,65.6,55.2,47.1,56.0,49.5,44.4,97,82,59,30.08,29.96,3,0,8,0.01
2013-9-26,67.9,56.8,48.5,51.4,48.2,44.8,97,75,44,30.15,30.01,0,0,4,0.00
2013-9-27,65.1,55.3,48.6,52.1,49.8,47.8,98,83,59,30.29,30.15,1,0,5,0.01
2013-9-28,59.0,52.6,46.7,52.6,49.4,45.1,98,89,72,30.35,30.27,4,1,6,0.01
2013-9-29,64.0,54.2,47.2,52.6,48.3,43.9,96,81,63,30.27,30.13,5,1,8,0.00
2013-9-30,64.3,56.8,49.1,56.4,52.9,47.5,98,87,70,30.14,30.08,2,0,5,0.00
2013-10-1,66.7,59.1,53.5,58.3,54.7,51.3,94,86,68,30.17,30.10,4,1,10,0.00
2013-10-2,70.8,61.5,56.5,59.8,56.7,54.6,96,85,61,30.19,30.13,7,2,15,0.00
2013-10-3,72.6,63.8,56.3,62.3,58.7,54.8,99,85,67,30.19,30.11,2,0,6,0.00
2013-10-4,75.4,65.8,60.2,63.4,60.3,57.8,94,83,63,30.18,30.10,4,2,8,0.00
2013-10-5,75.3,66.9,61.0,64.2,61.3,58.2,94,83,64,30.16,30.05,6,2,11,0.00
2013-10-6,77.9,68.6,61.7,61.9,59.0,56.3,93,73,49,30.07,29.87,8,4,14,0.00
2013-10-7,63.5,52.3,42.8,60.2,49.1,40.4,97,89,78,30.18,29.76,8,4,17,0.44
2013-10-8,58.4,48.2,40.6,45.3,41.7,39.4,98,79,56,30.40,30.17,8,1,11,0.00
2013-10-9,53.2,47.1,43.1,45.2,41.6,37.3,89,81,70,30.42,30.33,4,1,8,0.00
2013-10-10,52.8,48.8,43.3,52.3,47.5,40.2,99,95,84,30.33,30.16,2,0,8,0.17
2013-10-11,53.9,51.2,48.5,53.9,51.1,48.2,100,100,99,30.16,30.09,1,0,5,0.17
2013-10-12,56.1,54.0,52.2,56.1,54.0,52.2,100,100,100,30.26,30.11,1,0,4,0.27
2013-10-13,53.2,51.9,50.8,53.2,51.9,50.8,100,100,100,30.38,30.25,2,0,3,0.14
2013-10-14,55.4,52.6,50.6,55.4,52.6,50.6,100,100,100,30.38,30.30,4,0,5,0.01
2013-10-15,60.6,53.7,48.9,53.7,51.4,48.9,100,92,71,30.31,30.12,5,2,10,0.01
2013-10-16,65.5,58.4,51.8,56.5,49.9,35.2,96,74,46,30.11,29.97,6,1,10,0.00
2013-10-17,60.4,55.5,42.9,58.3,54.1,41.8,98,95,88,29.97,29.74,10,4,21,0.14
2013-10-18,55.0,45.2,38.3,42.0,38.6,36.5,95,79,52,30.13,29.92,7,3,21,0.00
2013-10-19,55.8,45.4,37.5,48.6,41.8,34.0,97,88,66,30.10,29.86,8,3,21,0.05
2013-10-20,50.9,41.1,34.0,36.2,33.2,30.6,93,75,48,30.21,30.00,7,3,21,0.00
2013-10-21,63.0,49.9,40.0,42.1,37.3,33.2,93,64,39,30.20,29.99,5,2,21,0.00
2013-10-22,48.9,43.2,33.9,42.9,37.1,30.6,96,80,59,29.99,29.89,8,4,18,0.02
2013-10-23,37.1,33.7,29.9,33.9,32.0,29.2,97,94,85,30.04,29.81,7,2,18,0.18
2013-10-24,32.4,29.9,28.1,30.3,28.0,26.3,97,93,82,30.27,30.03,8,4,13,0.09
2013-10-25,34.3,29.8,27.8,30.1,27.1,25.8,94,89,78,30.47,30.27,8,5,15,0.10
2013-10-26,45.8,35.5,27.1,29.7,25.6,21.6,92,70,41,30.44,30.07,11,5,25,0.01
2013-10-27,47.4,39.7,34.5,35.5,32.3,29.0,92,76,58,30.23,30.07,8,3,15,0.00
2013-10-28,56.0,45.3,37.5,39.9,35.6,32.1,94,71,42,30.37,30.22,5,2,15,0.00
2013-10-29,58.5,45.9,37.4,43.2,37.8,28.3,99,77,33,30.44,30.36,4,1,15,0.01
2013-10-30,56.0,52.6,45.2,53.8,48.9,39.4,94,87,76,30.37,30.22,5,2,11,0.00
2013-10-31,64.7,58.1,53.7,55.3,52.9,49.3,95,84,60,30.22,29.67,8,3,16,0.03
2013-11-1,63.4,54.2,47.1,56.7,47.2,41.5,95,78,53,29.76,29.53,14,6,33,0.23
2013-11-2,48.0,43.3,37.3,42.0,38.9,35.0,93,85,76,30.00,29.70,9,5,18,0.06
2013-11-3,44.0,36.4,28.2,36.1,30.2,23.9,97,80,49,30.53,30.00,6,1,10,0.04
2013-11-4,36.1,30.1,22.9,27.4,23.9,19.8,89,78,68,30.68,30.52,6,2,10,0.00
2013-11-5,43.9,38.1,29.3,40.8,29.9,24.5,91,73,55,30.69,30.52,6,2,10,0.00
2013-11-6,63.0,52.7,41.9,50.3,45.6,39.3,96,78,56,30.52,30.18,5,2,11,0.00
2013-11-7,50.3,36.9,30.3,48.6,34.0,23.6,98,89,75,30.15,29.92,8,4,24,0.17
2013-11-8,37.0,31.3,26.3,27.3,25.0,22.3,90,77,61,30.43,30.15,9,4,24,0.00
2013-11-9,53.5,41.2,25.9,26.6,20.7,9.7,88,50,17,30.42,30.11,10,3,19,0.00
2013-11-10,44.2,38.4,30.8,33.3,28.0,22.0,80,67,41,30.34,30.05,15,7,30,0.00
2013-11-11,53.3,40.6,29.0,30.2,17.0,4.5,86,47,16,30.39,30.10,11,6,19,0.00
2013-11-12,40.3,25.3,19.4,33.7,22.0,15.2,96,87,68,30.56,30.09,8,3,17,0.05
2013-11-13,26.1,20.9,17.8,18.9,17.0,15.2,92,85,70,30.65,30.53,12,5,20,0.01
2013-11-14,46.5,37.5,23.1,20.2,15.1,9.2,73,41,27,30.53,30.34,16,7,34,0.00
2013-11-15,51.4,43.4,37.7,38.4,20.4,12.4,93,42,27,30.36,30.26,13,5,34,0.04
2013-11-16,54.5,47.5,39.8,47.5,43.9,37.9,96,88,74,30.34,30.20,7,2,34,0.01
2013-11-17,61.3,53.3,45.7,55.2,49.6,43.5,96,88,73,30.21,29.71,11,4,34,0.12
2013-11-18,49.7,43.2,33.4,44.1,33.0,25.1,93,68,45,30.04,29.77,13,8,34,0.01
2013-11-19,33.4,28.0,22.5,26.6,22.9,19.7,91,81,72,30.50,30.03,5,2,29,0.00
2013-11-20,37.4,28.5,22.3,21.6,18.7,16.1,90,69,45,30.65,30.50,6,2,12,0.00
2013-11-21,50.9,38.9,27.8,44.1,33.4,19.4,92,81,65,30.61,30.42,5,2,12,0.00
2013-11-22,52.2,48.7,37.4,50.8,47.0,36.9,98,94,84,30.42,30.11,6,3,12,0.18
2013-11-23,37.1,26.5,13.4,36.6,23.2,8.1,98,88,70,30.33,30.15,10,4,17,0.01
2013-11-24,15.9,11.4,8.5,10.0,6.3,4.3,89,80,67,30.68,30.33,6,3,13,0.00
2013-11-25,37.3,24.1,8.6,19.0,9.3,0.9,84,56,22,30.68,30.40,7,2,20,0.00
2013-11-26,42.7,35.4,29.8,41.4,33.4,15.3,99,93,47,30.42,29.74,8,2,16,0.36
2013-11-27,39.6,23.5,13.9,39.3,22.2,10.8,99,95,86,30.17,29.69,12,5,27,0.00
2013-11-28,15.2,14.3,13.7,12.8,11.2,9.8,92,87,84,30.44,30.17,11,6,23,0.00
2013-12-2,44.9,41.1,38.1,36.4,35.1,33.5,90,79,66,30.02,29.92,3,1,8,0.00
2013-12-3,47.9,41.6,37.8,39.3,36.8,33.6,94,83,71,30.03,29.92,3,0,8,0.00
2013-12-4,55.1,46.8,40.4,47.2,42.8,37.1,96,86,73,30.12,30.02,4,2,8,0.00
2013-12-5,64.5,56.7,46.6,55.4,52.3,45.0,96,86,71,30.08,29.93,7,2,13,0.09
2013-12-6,57.4,36.7,30.8,55.5,36.1,30.3,99,98,88,30.23,29.91,7,1,12,1.07
2013-12-7,31.1,23.5,17.9,30.9,22.5,16.5,99,96,92,30.65,30.22,0,0,12,0.01
2013-12-8,28.3,19.4,16.1,27.8,18.3,14.7,98,95,93,30.65,30.37,0,0,12,0.00
2013-12-9,42.3,34.0,26.9,42.3,33.1,25.7,100,96,91,30.37,30.14,13,5,21,0.28
2013-12-10,27.0,22.5,17.9,25.8,19.8,13.1,97,89,79,30.31,30.06,14,6,26,0.00
2013-12-11,28.3,21.1,14.4,18.3,13.7,10.4,88,74,50,30.49,30.30,12,8,21,0.00
2013-12-12,21.6,18.4,15.2,17.0,14.3,10.1,90,84,78,30.42,30.40,10,7,20,0.00
2013-12-16,31.7,24.4,20.6,30.4,22.7,19.4,96,93,90,30.27,30.17,7,2,25,0.00
2013-12-17,34.0,31.1,23.1,33.0,29.6,21.0,97,94,90,30.20,30.02,8,3,25,0.00
2013-12-18,26.3,22.2,18.9,21.4,18.8,15.0,94,87,62,30.33,30.08,10,2,19,0.00
2013-12-19,48.8,42.9,26.3,33.6,25.3,10.9,61,50,36,30.31,30.18,13,8,30,0.02
2013-12-20,54.2,49.4,46.3,49.1,38.6,23.4,92,68,38,30.19,30.03,7,4,30,0.00
2013-12-21,66.9,57.9,51.6,55.6,51.4,48.2,90,80,57,30.06,29.85,9,4,30,0.01
2013-12-22,64.0,55.8,52.9,56.8,50.8,46.5,94,83,72,30.02,29.76,13,6,30,0.30
2013-12-23,53.1,36.7,23.9,48.2,34.6,21.1,97,92,79,30.28,29.93,7,3,30,0.17
2013-12-24,24.1,17.5,8.4,21.9,13.9,4.8,92,86,67,30.58,30.26,9,4,30,0.00
2013-12-25,29.2,18.3,7.1,16.2,10.9,4.4,90,74,47,30.65,30.42,6,1,30,0.00
2013-12-26,31.1,27.7,23.8,23.9,18.4,13.7,91,69,51,30.46,30.31,10,5,30,0.00
2013-12-27,37.4,29.5,21.7,19.2,16.3,10.8,76,59,38,30.53,30.45,8,4,30,0.00
2013-12-28,45.4,38.7,31.9,25.7,21.0,18.0,59,49,35,30.46,30.21,9,6,30,0.00
2013-12-29,46.4,38.2,33.4,41.3,34.2,12.9,99,89,26,30.21,29.68,9,4,30,0.63
2013-12-30,33.9,26.1,20.6,32.6,24.4,17.9,97,93,87,30.25,29.91,9,4,30,0.02
2013-12-31,24.0,20.7,17.9,20.3,17.3,14.4,92,86,78,30.41,30.19,16,9,30,0.00
2014-1-1,43.8,30.1,21.6,26.0,20.8,15.9,84,69,46,30.51,30.19,12,3,30,0.01
2014-1-2,35.4,29.1,10.7,29.3,23.0,8.1,97,79,54,30.19,29.70,6,1,30,0.00